WAYLND-WX Weather Reports


time (UTC)temp
C
wind
direction
speed
KPH
gust
KPH
rain 1hr
cm
rain 24hr
cm
rain mn
cm
humidity
%
barometer
mb
20260503060122 2 184 9.7 0.0 0.00 0.00 0.00 66 986.9
20260503054542 2 180 9.7 0.0 0.00 0.00 0.00 65 987.3
20260503051541 2 182 8.0 0.0 0.00 0.00 0.00 68 987.6
20260503050110 2 178 8.0 0.0 0.00 0.00 0.00 68 987.6
20260503044541 2 177 6.4 0.0 0.00 0.00 0.00 68 987.8
20260503043101 2 177 6.4 0.0 0.00 0.00 0.00 68 987.2
20260503041542 2 177 6.4 0.0 0.00 0.00 0.00 68 987.2
20260503040113 2 185 6.4 0.0 0.00 0.00 0.00 68 987.2
20260503034541 2 193 6.4 0.0 0.00 0.00 0.00 62 988.5
20260503033102 2 203 6.4 0.0 0.00 0.00 0.00 63 988.6
20260503031541 3 208 8.0 0.0 0.00 0.00 0.00 63 988.6
20260503030112 3 209 8.0 0.0 0.00 0.00 0.00 63 988.6
20260503024541 3 211 8.0 0.0 0.00 0.00 0.00 59 989.4
20260503023101 3 208 6.4 0.0 0.00 0.00 0.00 66 989.0
20260503021541 3 217 6.4 0.0 0.00 0.00 0.00 66 989.0
20260503020110 3 225 6.4 0.0 0.00 0.00 0.00 66 989.0
20260503014541 4 236 8.0 0.0 0.00 0.00 0.00 60 988.6
20260503013059 4 242 8.0 0.0 0.00 0.00 0.00 60 988.6
20260503011541 5 239 8.0 0.0 0.00 0.00 0.00 60 988.6
20260503010109 5 242 8.0 0.0 0.00 0.00 0.00 60 988.6
20260503004541 5 248 8.0 0.0 0.00 0.00 0.00 46 989.3
20260503003055 6 248 6.4 0.0 0.00 0.00 0.00 46 989.5
20260503001541 6 258 6.4 0.0 0.00 0.00 0.00 46 989.5
20260503000111 7 273 6.4 0.0 0.00 0.00 0.00 46 989.5
20260502234542 7 290 8.0 0.0 0.00 0.00 0.00 39 989.4
20260502233054 7 286 9.7 0.0 0.00 0.00 0.00 40 989.4
20260502231542 7 286 11.3 0.0 0.00 0.00 0.00 40 989.4
20260502230109 8 287 12.9 0.0 0.00 0.00 0.00 40 989.4
20260502224542 8 285 14.5 0.0 0.00 0.00 0.00 39 989.7
20260502223100 8 283 16.1 0.0 0.00 0.00 0.00 38 990.6
20260502221542 8 282 17.7 0.0 0.00 0.00 0.00 38 990.5
20260502220109 8 281 17.7 0.0 0.00 0.00 0.00 38 990.5
20260502214542 8 283 17.7 0.0 0.00 0.00 0.00 41 990.6
20260502213100 8 281 17.7 0.0 0.00 0.00 0.00 42 990.3
20260502211542 8 279 17.7 0.0 0.00 0.00 0.00 42 990.3
20260502210111 8 279 17.7 0.0 0.00 0.00 0.00 42 990.3
20260502204542 8 277 17.7 0.0 0.00 0.00 0.00 39 990.7
20260502203100 8 275 17.7 0.0 0.00 0.00 0.00 40 991.2
20260502201542 8 275 17.7 0.0 0.00 0.00 0.00 40 991.1
20260502200108 8 277 17.7 0.0 0.00 0.00 0.00 40 991.1
20260502194542 8 278 17.7 0.0 0.00 0.00 0.00 34 991.3
20260502193055 8 278 19.3 0.0 0.00 0.00 0.00 34 991.3
20260502191542 8 281 19.3 0.0 0.00 0.00 0.00 34 991.3
20260502190109 8 281 19.3 0.0 0.00 0.00 0.00 34 991.3
20260502184542 8 281 19.3 0.0 0.00 0.00 0.00 41 991.2
20260502183101 8 284 19.3 0.0 0.00 0.00 0.00 44 991.3
20260502181541 8 283 19.3 0.0 0.00 0.00 0.00 44 991.3
20260502180113 7 284 19.3 0.0 0.00 0.00 0.00 44 991.3
20260502170106 7 279 16.1 0.0 0.00 0.00 0.00 43 991.8
20260502163102 7 281 14.5 0.0 0.00 0.00 0.00 44 990.8
20260502161542 7 281 14.5 0.0 0.00 0.00 0.00 44 990.8
20260502160112 6 282 12.9 0.0 0.00 0.00 0.00 44 990.8
20260502151542 6 290 11.3 0.0 0.00 0.00 0.00 52 990.9
20260502150114 5 288 11.3 0.0 0.00 0.00 0.00 52 990.9
20260502140117 4 319 9.7 0.0 0.00 0.00 0.00 61 991.7
20260502130109 2 330 6.4 0.0 0.00 0.00 0.00 72 991.3
20260502123100 1 326 6.4 0.0 0.00 0.00 0.00 78 991.3
20260502121542 1 323 6.4 0.0 0.00 0.00 0.00 78 991.3
20260502120119 0 313 6.4 0.0 0.00 0.00 0.00 78 991.3
20260502114542 0 304 6.4 0.0 0.00 0.00 0.00 86 991.1
20260502113104 0 283 3.2 0.0 0.00 0.00 0.00 86 991.0
20260502111542 0 270 1.6 0.0 0.00 0.00 0.00 86 991.0
20260502110111 0 283 3.2 0.0 0.00 0.00 0.00 86 991.0
20260502104541 0 291 1.6 0.0 0.00 0.00 0.00 85 990.8
20260502103100 0 308 3.2 0.0 0.00 0.00 0.00 84 991.1
20260502101542 0 302 3.2 0.0 0.00 0.00 0.00 84 991.1
20260502100110 0 301 3.2 0.0 0.00 0.00 0.00 84 991.1
20260502090110 0 307 4.8 0.0 0.00 0.00 0.00 85 990.6
20260502070109 0 311 6.4 0.0 0.00 0.00 0.00 81 989.8
20260502064542 0 309 6.4 0.0 0.00 0.00 0.00 77 991.0